Change the Weather History Date:

Thursday, August 22, 2013

  Actual Average Record
Temperature  
Mean Temperature 70 °F 71 °F  
Max Temperature 75 °F 82 °F 101 °F (1936)
Min Temperature 64 °F 61 °F 41 °F (1923)
Degree Days  
Heating Degree Days 0 0  
Month to date heating degree days 2 0  
Since 1 June heating degree days 45 34  
Since 1 July heating degree days 11 3  
Cooling Degree Days 5 7  
Month to date cooling degree days 124 168  
Year to date cooling degree days 641 672  
Since 1 June cooling degree days 549 617  
Growing Degree Days 20 (Base 50)    
Moisture  
Dew Point 67 °F    
Average Humidity 87    
Maximum Humidity 100    
Minimum Humidity 73    
Precipitation  
Precipitation 1.39 in 0.14 in 2.95 in (2002)
Month to date precipitation 2.72 3.33  
Year to date precipitation 31.80 24.40  
Snow  
Snow 0.00 in 0.00 in 0.00 in ()
Month to date snowfall 0.0 0.0  
Since 1 June snowfall 0.0 0.0  
Since 1 July snowfall 0.0 0.0  
Snow Depth 0.00 in    
Sea Level Pressure  
Sea Level Pressure 30.08 in    
Wind  
Wind Speed 7 mph (WSW)    
Max Wind Speed 25 mph    
Max Gust Speed 31 mph    
Visibility 8 miles    
Events Fog , Rain , Thunderstorm    
T = Trace of Precipitation, MM = Missing Value Source: NWS Daily Summary

Daily Weather History Graph

Daily Weather History Graph

Search for Another Location

Airport or City:

Trip Planner

Search our weather history database for the weather conditions in past years. The results will help you decide how hot, cold, wet, or windy it might be!

Date:

Astronomy

Aug. 22, 2013 Rise Set
Actual Time 6:11 AM CDT 7:46 PM CDT
Civil Twilight 5:41 AM CDT 8:15 PM CDT
Nautical Twilight 5:06 AM CDT 8:51 PM CDT
Astronomical Twilight 4:28 AM CDT 9:29 PM CDT
Moon 8:26 PM CDT (8/22) 8:03 AM CDT (8/22)
Length of Visible Light 14h 33m
Length of Day
13h 34m
Waning Gibbous, 96% of the Moon is Illuminated
Aug 22
Waning Gibbous
Aug 28
Last Quarter
Sep 5
New
Sep 12
First Quarter
Sep 19
Full

Hourly Weather History & Observations

Time (CDT) Temp. Dew Point Humidity Pressure Visibility Wind Dir Wind Speed Gust Speed Precip Events Conditions
12:54 AM 73.0 °F 68.0 °F 84% 29.99 in 10.0 mi SSE 9.2 mph - N/A   Overcast
1:54 AM 73.0 °F 68.0 °F 84% 30.01 in 10.0 mi Calm Calm - 0.00 in   Overcast
2:54 AM 73.0 °F 68.0 °F 84% 30.02 in 10.0 mi SSE 3.5 mph - N/A   Overcast
3:54 AM 73.0 °F 69.1 °F 87% 30.02 in 10.0 mi South 5.8 mph - 0.00 in Rain Light Rain
4:02 AM 73.4 °F 69.8 °F 88% 30.04 in 10.0 mi South 3.5 mph - 0.00 in Thunderstorm Thunderstorm
4:54 AM 73.0 °F 68.0 °F 84% 30.02 in 10.0 mi SSW 9.2 mph - 0.00 in Rain , Thunderstorm Light Thunderstorms and Rain
5:54 AM 72.0 °F 69.1 °F 91% 30.03 in 10.0 mi South 10.4 mph - 0.01 in Rain , Thunderstorm Light Thunderstorms and Rain
6:17 AM 71.6 °F 69.8 °F 94% 30.06 in 2.0 mi WSW 16.1 mph 24.2 mph 0.08 in Rain , Thunderstorm Heavy Thunderstorms and Rain
6:38 AM 71.6 °F 69.8 °F 94% 30.07 in 6.0 mi North 6.9 mph - 0.36 in Rain , Thunderstorm Light Thunderstorms and Rain
6:54 AM 72.0 °F 70.0 °F 93% 30.05 in 7.0 mi Calm Calm - 0.37 in Rain , Thunderstorm Light Thunderstorms and Rain
7:14 AM 71.6 °F 69.8 °F 94% 30.05 in 8.0 mi South 8.1 mph - 0.00 in   Overcast
7:54 AM 72.0 °F 70.0 °F 93% 30.03 in 8.0 mi SSW 12.7 mph - 0.00 in   Overcast
8:54 AM 71.1 °F 66.0 °F 84% 30.04 in 10.0 mi SSW 8.1 mph - N/A   Overcast
9:08 AM 71.6 °F 66.2 °F 83% 30.09 in 10.0 mi WSW 8.1 mph - N/A Thunderstorm Thunderstorm
9:27 AM 71.6 °F 68.0 °F 88% 30.14 in 2.0 mi WNW 20.7 mph 27.6 mph 0.01 in Rain , Thunderstorm Light Thunderstorms and Rain
9:32 AM 69.8 °F 66.2 °F 88% 30.14 in 1.5 mi NW 16.1 mph 28.8 mph 0.07 in Rain , Thunderstorm Heavy Thunderstorms and Rain
9:54 AM 70.0 °F 66.0 °F 87% 30.14 in 1.5 mi NNW 20.7 mph 29.9 mph 0.37 in Rain , Thunderstorm Heavy Thunderstorms and Rain
10:02 AM 69.8 °F 66.2 °F 88% 30.15 in 2.5 mi NNW 18.4 mph 29.9 mph 0.07 in Rain , Thunderstorm Heavy Thunderstorms and Rain
10:22 AM 69.8 °F 66.2 °F 88% 30.14 in 5.0 mi North 21.9 mph 31.1 mph 0.32 in Rain , Thunderstorm Thunderstorms and Rain
10:54 AM 69.1 °F 66.0 °F 90% 30.13 in 7.0 mi North 17.3 mph - 0.38 in Rain , Thunderstorm Light Thunderstorms and Rain
11:13 AM 69.8 °F 66.2 °F 88% 30.20 in 5.0 mi NW 15.0 mph - 0.09 in Rain , Thunderstorm Light Thunderstorms and Rain
11:38 AM 68.0 °F 66.2 °F 94% 30.16 in 6.0 mi NNE 10.4 mph - 0.18 in Rain Light Rain
11:54 AM 68.0 °F 66.0 °F 93% 30.15 in 6.0 mi East 4.6 mph - 0.21 in Rain Rain
12:54 PM 69.1 °F 66.9 °F 93% 30.11 in 10.0 mi SE 9.2 mph - 0.05 in Rain Light Rain
1:54 PM 70.0 °F 66.9 °F 90% 30.10 in 10.0 mi SSE 6.9 mph - 0.00 in Rain Light Rain
2:54 PM 71.1 °F 66.9 °F 87% 30.07 in 10.0 mi South 5.8 mph - 0.00 in Rain Light Rain
3:54 PM 72.0 °F 66.0 °F 81% 30.03 in 10.0 mi SSE 8.1 mph - 0.00 in   Overcast
4:54 PM 72.0 °F 66.9 °F 84% 30.08 in 10.0 mi WNW 9.2 mph - N/A   Mostly Cloudy
5:54 PM 75.0 °F 66.0 °F 73% 30.09 in 10.0 mi WNW 9.2 mph - N/A   Mostly Cloudy
6:54 PM 73.9 °F 64.9 °F 73% 30.09 in 10.0 mi NW 5.8 mph - N/A   Mostly Cloudy
7:54 PM 71.1 °F 66.0 °F 84% 30.10 in 10.0 mi NNW 8.1 mph - N/A   Scattered Clouds
8:54 PM 69.1 °F 64.9 °F 87% 30.11 in 10.0 mi NNE 3.5 mph - N/A   Partly Cloudy
9:54 PM 68.0 °F 64.9 °F 90% 30.12 in 10.0 mi Calm Calm - N/A   Clear
10:54 PM 66.0 °F 64.0 °F 93% 30.12 in 10.0 mi Calm Calm - N/A   Clear
11:54 PM 64.9 °F 64.0 °F 97% 30.13 in 10.0 mi Calm Calm - N/A Fog Shallow Fog